Briefing météo

Issoire-Le-Broc LFHA

Appuyer sur ? pour obtenir de l'aide.
Réalisé par l'aéroclub Pierre Herbaud
sur une idée originale de l'aéroclub de Sologne et Gabriel BRIFFE

Prévisions pour la journée

Prévision front à 12H00 (UTC)

Météo du jour - France

Satellite - visible

Satellite - Radar pluie

Satellite & radar pluie

meteoblue.com

Vents & radar pluie

windy.com

Orage, foudre, pluie

Témp. & Géopotentiel a 850hPa

windy.com (pression & vent)

Vent moy. 10m - heure UTC

Vent moy. 850hPa - heure UTC

meteo-parapente.com

Sondage prévue - 15h00

Table des niveaux de vols

QNH LFLC
delta m

METAR: LFLC 301100Z AUTO 01003KT 340V040 9999 SCT026 OVC040 M00/M04 Q1030 TEMPO 4000 -RADZ BKN010

FL Altitude (m) Altitude du jour (m)
FL55 1676 yy
FL65 1981 yy
FL85 2591 yy
FL95 2895 yy
FL110 3353 yy
FL115 3505 yy

Sites externes

Prévisions sur 7 jours

meteoblue.com

Meteogram 3jrs

meteoblue.com

✼ Bon vol !